Houston, TX

10:36 AM CDT on July 28, 2017 (GMT -0500)
Hobby

Weather History for KHOU - May, 2012

Change the Weather History Date:

Tuesday, May 29, 2012

  Actual Average Record
Temperature  
Mean Temperature 84 °F 80 °F  
Max Temperature 95 °F 89 °F 99 °F (1996)
Min Temperature 72 °F 71 °F 58 °F (1984)
Cooling Degree Days 19 15  
Month to date cooling degree days 382 341  
Year to date cooling degree days 906 622  
Growing Degree Days 32 (Base 50)    
Moisture  
Dew Point 71 °F    
Average Humidity 57    
Maximum Humidity 74    
Minimum Humidity 39    
Precipitation  
Precipitation 0.00 in 0.17 in 4.33 in (2006)
Month to date precipitation 0.77 4.75  
Year to date precipitation 22.24 18.05  
Sea Level Pressure  
Sea Level Pressure 29.90 in    
Wind  
Wind Speed 6 mph (South)    
Max Wind Speed 15 mph    
Max Gust Speed 22 mph    
Visibility 10 miles    
Events      
T = Trace of Precipitation, MM = Missing Value Source: NWS Daily Summary

Daily Weather History Graph

Daily Weather History Graph

Search for Another Location

Airport or City:

Trip Planner

Search our weather history database for the weather conditions in past years. The results will help you decide how hot, cold, wet, or windy it might be!

Date:

Astronomy

May. 29, 2012 Rise Set
Actual Time 6:21 AM CDT 8:15 PM CDT
Civil Twilight 5:55 AM CDT 8:42 PM CDT
Nautical Twilight 5:22 AM CDT 9:14 PM CDT
Astronomical Twilight 4:48 AM CDT 9:49 PM CDT
Moon 2:12 PM CDT (5/29) 1:47 AM CDT (5/29)
Length of Visible Light 14h 47m
Length of Day
13h 53m
First Quarter, 59% of the Moon is Illuminated
May 29
First Quarter
Jun 4
Full
Jun 11
Last Quarter
Jun 19
New
Jun 26
First Quarter

Hourly Weather History & Observations

Time (CDT) Temp. Heat Index Dew Point Humidity Pressure Visibility Wind Dir Wind Speed Gust Speed Precip Events Conditions
12:53 AM 75.9 °F - 71.1 °F 85% 29.93 in 10.0 mi South 4.6 mph - N/A   Clear
1:53 AM 75.0 °F - 71.1 °F 87% 29.91 in 10.0 mi South 3.5 mph - N/A   Clear
2:53 AM 75.0 °F - 71.1 °F 87% 29.93 in 10.0 mi Calm Calm - N/A   Clear
3:53 AM 75.0 °F - 71.1 °F 87% 29.93 in 10.0 mi Calm Calm - N/A   Partly Cloudy
4:53 AM 73.0 °F - 70.0 °F 90% 29.93 in 10.0 mi Calm Calm - N/A   Partly Cloudy
5:53 AM 72.0 °F - 70.0 °F 93% 29.92 in 10.0 mi SSE 4.6 mph - N/A   Partly Cloudy
6:53 AM 73.9 °F - 71.1 °F 91% 29.91 in 10.0 mi South 6.9 mph - N/A   Scattered Clouds
7:53 AM 77.0 °F - 73.0 °F 88% 29.90 in 10.0 mi South 12.7 mph - N/A   Partly Cloudy
8:53 AM 81.0 °F 85.8 °F 73.0 °F 77% 29.93 in 10.0 mi SSW 11.5 mph 23.0 mph N/A   Scattered Clouds
9:53 AM 82.9 °F 87.5 °F 71.1 °F 67% 29.94 in 10.0 mi South 11.5 mph - N/A   Scattered Clouds
10:53 AM 86.0 °F 90.7 °F 70.0 °F 59% 29.94 in 10.0 mi SSW 11.5 mph - N/A   Scattered Clouds
11:53 AM 86.0 °F 89.4 °F 68.0 °F 55% 29.94 in 10.0 mi SW 9.2 mph - N/A   Scattered Clouds
12:53 PM 90.0 °F 93.6 °F 68.0 °F 48% 29.94 in 10.0 mi South 9.2 mph - N/A   Scattered Clouds
1:53 PM 91.0 °F 94.3 °F 66.9 °F 45% 29.92 in 10.0 mi SSW 9.2 mph - N/A   Scattered Clouds
2:53 PM 91.0 °F 94.3 °F 66.9 °F 45% 29.90 in 10.0 mi Variable 4.6 mph - N/A   Mostly Cloudy
3:53 PM 91.9 °F 95.9 °F 68.0 °F 45% 29.88 in 10.0 mi South 6.9 mph - N/A   Mostly Cloudy
4:53 PM 91.9 °F 95.9 °F 68.0 °F 45% 29.87 in 10.0 mi South 8.1 mph - N/A   Scattered Clouds
5:53 PM 91.0 °F 95.6 °F 69.1 °F 48% 29.85 in 10.0 mi SSW 8.1 mph - N/A   Scattered Clouds
6:33 PM 89.6 °F 94.7 °F 69.8 °F 52% 29.83 in 10.0 mi SW 9.2 mph - N/A   Scattered Clouds
6:53 PM 89.1 °F 95.0 °F 71.1 °F 55% 29.84 in 10.0 mi South 10.4 mph - N/A   Scattered Clouds
7:53 PM 86.0 °F 92.2 °F 72.0 °F 63% 29.85 in 10.0 mi South 10.4 mph - N/A   Partly Cloudy
8:53 PM 82.9 °F 88.8 °F 73.0 °F 72% 29.86 in 10.0 mi South 9.2 mph - N/A   Partly Cloudy
9:53 PM 81.0 °F 85.8 °F 73.0 °F 77% 29.88 in 10.0 mi South 8.1 mph - N/A   Clear
10:53 PM 79.0 °F - 73.9 °F 84% 29.89 in 10.0 mi South 8.1 mph - N/A   Clear
11:53 PM 78.1 °F - 73.9 °F 87% 29.90 in 10.0 mi South 5.8 mph - N/A   Clear